Hourly Weather Rudnyky

Today, 16 April, Friday

Time Temperature Precipitation Wind Pressure Humidity
00:00 +3°C° 0.4 mm 4 mps 742 mmHg 97%
01:00 +3°C° 0.4 mm 4 mps 741 mmHg 97%
02:00 +3°C° 0 mm 4 mps 741 mmHg 97%
03:00 +3°C° 0.3 mm 3 mps 741 mmHg 97%
04:00 +3°C° 0.3 mm 3 mps 740 mmHg 97%
05:00 +4°C° 0.3 mm 3 mps 740 mmHg 98%
06:00 +4°C° 0.4 mm 3 mps 740 mmHg 98%
07:00 +4°C° 0.4 mm 3 mps 740 mmHg 97%
08:00 +4°C° 0.4 mm 3 mps 740 mmHg 97%
09:00 +4°C° 0.6 mm 3 mps 740 mmHg 97%
10:00 +4°C° 0.6 mm 3 mps 740 mmHg 96%
11:00 +4°C° 0.6 mm 3 mps 740 mmHg 96%
12:00 +4°C° 0.4 mm 3 mps 741 mmHg 96%
13:00 +4°C° 0.4 mm 3 mps 741 mmHg 95%
14:00 +4°C° 0.4 mm 3 mps 741 mmHg 95%
15:00 +4°C° 0.1 mm 3 mps 741 mmHg 95%
16:00 +3°C° 0.1 mm 4 mps 741 mmHg 95%
17:00 +3°C° 0.1 mm 4 mps 742 mmHg 96%
18:00 +3°C° 0.1 mm 3 mps 742 mmHg 96%
19:00 +2°C° 0.1 mm 3 mps 742 mmHg 96%
20:00 +2°C° 0.1 mm 3 mps 742 mmHg 97%
21:00 +2°C° 0 mm 3 mps 743 mmHg 97%
22:00 +3°C° 0 mm 2 mps 743 mmHg 97%
23:00 +3°C° 0 mm 2 mps 743 mmHg 97%

Tomorrow, 17 April, Saturday

Time Temperature Precipitation Wind Pressure Humidity
00:00 +3°C° 0 mm 2 mps 743 mmHg 97%
01:00 +3°C° 0 mm 2 mps 743 mmHg 97%
02:00 +3°C° 0 mm 2 mps 743 mmHg 97%
03:00 +3°C° 0 mm 2 mps 744 mmHg 97%
04:00 +3°C° 0 mm 2 mps 744 mmHg 97%
05:00 +4°C° 0 mm 1 mps 744 mmHg 97%
06:00 +4°C° 0 mm 1 mps 744 mmHg 96%
07:00 +4°C° 0 mm 1 mps 745 mmHg 95%
08:00 +5°C° 0 mm 1 mps 745 mmHg 93%
09:00 +5°C° 0 mm 1 mps 745 mmHg 91%
10:00 +6°C° 0 mm 1 mps 746 mmHg 89%
11:00 +7°C° 0 mm 1 mps 746 mmHg 86%
12:00 +8°C° 0 mm 1 mps 746 mmHg 84%
13:00 +8°C° 0 mm 1 mps 746 mmHg 81%
14:00 +8°C° 0 mm 2 mps 746 mmHg 78%
15:00 +9°C° 0 mm 1 mps 747 mmHg 76%
16:00 +9°C° 0 mm 1 mps 747 mmHg 74%
17:00 +9°C° 0 mm 1 mps 747 mmHg 73%
18:00 +8°C° 0 mm 1 mps 747 mmHg 76%
19:00 +7°C° 0 mm 2 mps 747 mmHg 80%
20:00 +6°C° 0 mm 2 mps 747 mmHg 84%
21:00 +5°C° 0 mm 2 mps 747 mmHg 87%
22:00 +4°C° 0 mm 2 mps 747 mmHg 91%
23:00 +3°C° 0 mm 2 mps 747 mmHg 94%

Day after tomorrow, 18 April, Sunday

Time Temperature Precipitation Wind Pressure Humidity
00:00 +3°C° 0 mm 2 mps 747 mmHg 94%
01:00 +3°C° 0 mm 2 mps 747 mmHg 95%
02:00 +2°C° 0 mm 2 mps 747 mmHg 95%
03:00 +2°C° 0 mm 2 mps 747 mmHg 95%
04:00 +2°C° 0 mm 2 mps 747 mmHg 95%
05:00 +2°C° 0 mm 2 mps 746 mmHg 95%
06:00 +3°C° 0 mm 2 mps 746 mmHg 91%
07:00 +5°C° 0 mm 2 mps 746 mmHg 87%
08:00 +6°C° 0 mm 2 mps 746 mmHg 82%
09:00 +8°C° 0 mm 2 mps 746 mmHg 77%
10:00 +10°C° 0 mm 2 mps 746 mmHg 71%
11:00 +13°C° 0 mm 2 mps 746 mmHg 65%
12:00 +13°C° 0.1 mm 2 mps 746 mmHg 64%
13:00 +14°C° 0.1 mm 2 mps 745 mmHg 63%
14:00 +14°C° 0.1 mm 2 mps 745 mmHg 62%
15:00 +13°C° 0.2 mm 3 mps 745 mmHg 67%
16:00 +12°C° 0.2 mm 3 mps 745 mmHg 73%
17:00 +11°C° 0.2 mm 3 mps 745 mmHg 79%
18:00 +11°C° 0 mm 3 mps 745 mmHg 81%
19:00 +10°C° 0 mm 3 mps 746 mmHg 84%
20:00 +9°C° 0 mm 3 mps 746 mmHg 86%
21:00 +8°C° 0 mm 3 mps 746 mmHg 86%
22:00 +7°C° 0 mm 3 mps 746 mmHg 86%
23:00 +5°C° 0 mm 3 mps 746 mmHg 86%

19 April, Monday

Time Temperature Precipitation Wind Pressure Humidity
00:00 +4°C° 0 mm 3 mps 746 mmHg 87%
01:00 +4°C° 0 mm 3 mps 746 mmHg 89%
02:00 +3°C° 0 mm 3 mps 746 mmHg 91%
03:00 +3°C° 0 mm 2 mps 746 mmHg 91%
04:00 +3°C° 0 mm 2 mps 746 mmHg 92%
05:00 +3°C° 0 mm 2 mps 746 mmHg 92%
06:00 +3°C° 0 mm 3 mps 746 mmHg 88%
07:00 +5°C° 0 mm 3 mps 746 mmHg 83%
08:00 +7°C° 0 mm 3 mps 746 mmHg 78%
09:00 +8°C° 0 mm 3 mps 745 mmHg 73%
10:00 +10°C° 0 mm 4 mps 745 mmHg 67%
11:00 +11°C° 0 mm 4 mps 745 mmHg 61%
12:00 +11°C° 0 mm 4 mps 745 mmHg 63%
13:00 +11°C° 0 mm 4 mps 744 mmHg 65%
14:00 +10°C° 0 mm 3 mps 744 mmHg 66%
15:00 +10°C° 0 mm 4 mps 744 mmHg 67%
16:00 +10°C° 0 mm 4 mps 743 mmHg 68%
17:00 +10°C° 0 mm 4 mps 743 mmHg 69%
18:00 +8°C° 0 mm 5 mps 743 mmHg 73%
19:00 +7°C° 0 mm 5 mps 743 mmHg 76%
20:00 +6°C° 0 mm 5 mps 743 mmHg 80%
21:00 +6°C° 0 mm 4 mps 743 mmHg 77%
22:00 +6°C° 0 mm 4 mps 742 mmHg 75%
23:00 +7°C° 0 mm 3 mps 742 mmHg 73%

20 April, Tuesday

Time Temperature Precipitation Wind Pressure Humidity
00:00 +5°C° 0 mm 3 mps 741 mmHg 77%
01:00 +5°C° 0 mm 4 mps 741 mmHg 81%
02:00 +5°C° 0 mm 4 mps 740 mmHg 85%
03:00 +5°C° 0 mm 4 mps 740 mmHg 87%
04:00 +5°C° 0 mm 4 mps 740 mmHg 89%
05:00 +4°C° 0 mm 4 mps 739 mmHg 90%
06:00 +5°C° 0 mm 4 mps 739 mmHg 90%
07:00 +5°C° 0 mm 5 mps 739 mmHg 89%
08:00 +5°C° 0 mm 5 mps 738 mmHg 88%
09:00 +5°C° 0 mm 6 mps 738 mmHg 84%
10:00 +7°C° 0 mm 6 mps 738 mmHg 79%
11:00 +6°C° 0 mm 7 mps 737 mmHg 75%
12:00 +8°C° 0.1 mm 7 mps 737 mmHg 72%
13:00 +8°C° 0.1 mm 7 mps 737 mmHg 69%
14:00 +9°C° 0.1 mm 7 mps 736 mmHg 66%
15:00 +8°C° 0 mm 7 mps 736 mmHg 68%
16:00 +8°C° 0 mm 6 mps 736 mmHg 69%
17:00 +8°C° 0 mm 6 mps 736 mmHg 71%
18:00 +7°C° 0 mm 6 mps 736 mmHg 73%
19:00 +5°C° 0 mm 6 mps 737 mmHg 75%
20:00 +5°C° 0 mm 6 mps 737 mmHg 77%
21:00 +5°C° 0 mm 6 mps 737 mmHg 80%
22:00 +5°C° 0 mm 5 mps 737 mmHg 83%
23:00 +5°C° 0 mm 5 mps 737 mmHg 87%

21 April, Wednesday

Time Temperature Precipitation Wind Pressure Humidity
00:00 +5°C° 0 mm 5 mps 737 mmHg 87%
01:00 +5°C° 0 mm 5 mps 737 mmHg 86%
02:00 +5°C° 0 mm 5 mps 737 mmHg 86%
03:00 +3°C° 0 mm 6 mps 737 mmHg 87%
04:00 +3°C° 0 mm 6 mps 737 mmHg 87%
05:00 +3°C° 0 mm 6 mps 738 mmHg 88%
06:00 +4°C° 0 mm 6 mps 738 mmHg 86%
07:00 +4°C° 0 mm 6 mps 738 mmHg 84%
08:00 +5°C° 0 mm 6 mps 739 mmHg 82%
09:00 +7°C° 0 mm 6 mps 739 mmHg 75%
10:00 +8°C° 0 mm 6 mps 739 mmHg 68%
11:00 +9°C° 0 mm 6 mps 739 mmHg 61%
12:00 +10°C° 0.1 mm 6 mps 740 mmHg 58%
13:00 +10°C° 0.1 mm 6 mps 740 mmHg 55%
14:00 +10°C° 0.1 mm 6 mps 740 mmHg 53%
15:00 +10°C° 0 mm 5 mps 740 mmHg 54%
16:00 +10°C° 0 mm 5 mps 741 mmHg 56%
17:00 +11°C° 0 mm 4 mps 741 mmHg 58%
18:00 +10°C° 0 mm 4 mps 741 mmHg 63%
19:00 +9°C° 0 mm 3 mps 742 mmHg 68%
20:00 +7°C° 0 mm 2 mps 742 mmHg 73%
21:00 +7°C° 0 mm 2 mps 742 mmHg 76%
22:00 +6°C° 0 mm 2 mps 743 mmHg 79%
23:00 +5°C° 0 mm 2 mps 743 mmHg 82%
Show more